Weather History for Isle Of Man, United Kingdom

Change the Weather History Date:

Wednesday, December 12, 2012

  Actual Average Record
Temperature  
Mean Temperature 40 °F -  
Max Temperature 42 °F 46 °F 57 °F (2001)
Min Temperature 37 °F 39 °F 33 °F (2005)
Degree Days  
Heating Degree Days 26    
Moisture  
Dew Point 33 °F    
Average Humidity 74    
Maximum Humidity 81    
Minimum Humidity 62    
Precipitation  
Precipitation 0.01 in - - ()
Sea Level Pressure  
Sea Level Pressure 29.99 in    
Wind  
Wind Speed 11 mph ()    
Max Wind Speed 17 mph    
Max Gust Speed -    
Visibility 6.8 miles    
Events Rain    
Averages and records for this station are not official NWS values.
T = Trace of Precipitation, MM = Missing Value Source: Averaged Metar Reports

Daily Weather History Graph

Daily Weather History Graph

Search for Another Location

Airport:

Trip Planner

Search our weather history database for the weather conditions in past years. The results will help you decide how hot, cold, wet, or windy it might be!

Date:

Astronomy

Dec. 12, 2012 Rise Set
Actual Time 8:29 AM GMT 3:55 PM GMT
Civil Twilight 7:45 AM GMT 4:39 PM GMT
Nautical Twilight 6:59 AM GMT 5:25 PM GMT
Astronomical Twilight 6:16 AM GMT 6:08 PM GMT
Moon 7:13 AM GMT (12/12) 3:21 PM GMT (12/12)
Length of Visible Light 8h 53m
Length of Day
7h 26m
Waning Crescent, 1% of the Moon is Illuminated
Dec 12
Waning Crescent
Dec 13
New
Dec 20
First Quarter
Dec 28
Full
Jan 5
Last Quarter

Hourly Weather History & Observations

Time (GMT) Temp. Windchill Dew Point Humidity Pressure Visibility Wind Dir Wind Speed Gust Speed Precip Events Conditions
12:50 AM 41.0 °F 34.7 °F 32.0 °F 70% 30.21 in 6.2 mi South 10.4 mph - N/A   Mostly Cloudy
1:50 AM 41.0 °F 33.9 °F 30.2 °F 65% 30.21 in 6.2 mi South 12.7 mph - N/A   Mostly Cloudy
2:50 AM 41 °F - 34 °F 69% 30.20 in 25 mi South 12.7 mph - -   Scattered Clouds
2:50 AM 41.0 °F 33.9 °F 33.8 °F 76% 30.18 in 6.2 mi South 12.7 mph - N/A   Partly Cloudy
3:50 AM 41.0 °F 33.9 °F 33.8 °F 76% 30.15 in 6.2 mi South 12.7 mph - N/A   Mostly Cloudy
4:50 AM 39.2 °F 32.5 °F 32.0 °F 75% 30.12 in 6.2 mi South 10.4 mph - N/A   Partly Cloudy
5:20 AM 37.4 °F 30.8 °F 30.2 °F 75% 30.12 in 6.2 mi South 9.2 mph - N/A   Partly Cloudy
5:50 AM 38 °F - 30 °F 64% 30.13 in 25 mi SSE 10.4 mph - -   Scattered Clouds
5:50 AM 37.4 °F 30.3 °F 30.2 °F 75% 30.12 in 6.2 mi SSE 10.4 mph - N/A   Partly Cloudy
6:20 AM 37.4 °F 29.8 °F 30.2 °F 75% 30.12 in 6.2 mi SSE 11.5 mph - N/A   Partly Cloudy
6:50 AM 37.4 °F 29.8 °F 28.4 °F 70% 30.09 in 6.2 mi South 11.5 mph - N/A   Partly Cloudy
7:20 AM 37.4 °F 29.8 °F 28.4 °F 70% 30.09 in 6.2 mi SSE 11.5 mph - N/A   Partly Cloudy
7:50 AM 37.4 °F 29.8 °F 30.2 °F 75% 30.06 in 6.2 mi SSE 11.5 mph - N/A   Partly Cloudy
8:20 AM 39.2 °F 32.0 °F 30.2 °F 70% 30.06 in 6.2 mi SSE 11.5 mph - N/A   Partly Cloudy
8:50 AM 39 °F - 31 °F 62% 30.09 in 31 mi SE 11.5 mph - -   Scattered Clouds
8:50 AM 39.2 °F 32.0 °F 30.2 °F 70% 30.06 in 6.2 mi SE 11.5 mph - N/A   Partly Cloudy
9:20 AM 39.2 °F 32.5 °F 30.2 °F 70% 30.06 in 6.2 mi SE 10.4 mph - N/A   Scattered Clouds
9:50 AM 41.0 °F 34.7 °F 30.2 °F 65% 30.06 in 6.2 mi SE 10.4 mph - N/A   Mostly Cloudy
10:20 AM 41.0 °F 35.2 °F 32.0 °F 70% 30.04 in 6.2 mi SE 9.2 mph - N/A   Mostly Cloudy
10:50 AM 41.0 °F 35.2 °F 32.0 °F 70% 30.04 in 6.2 mi SE 9.2 mph - N/A   Mostly Cloudy
11:20 AM 41.0 °F 35.2 °F 32.0 °F 70% 30.04 in 6.2 mi SE 9.2 mph - N/A   Mostly Cloudy
11:50 AM 42 °F - 34 °F 64% 30.02 in 25 mi SSE 10.4 mph - -   Overcast
11:50 AM 41.0 °F 34.7 °F 33.8 °F 76% 30.01 in 6.2 mi SSE 10.4 mph - N/A   Mostly Cloudy
12:20 PM 41.0 °F 33.1 °F 35.6 °F 81% 30.01 in 6.2 mi SSE 15.0 mph - N/A Rain Light Rain
12:50 PM 42.8 °F 35.8 °F 35.6 °F 76% 29.98 in 6.2 mi SSE 13.8 mph - N/A   Mostly Cloudy
1:20 PM 41.0 °F 33.1 °F 35.6 °F 81% 29.98 in 6.2 mi SE 15.0 mph - N/A   Mostly Cloudy
1:50 PM 41.0 °F 33.5 °F 33.8 °F 76% 29.95 in 6.2 mi SSE 13.8 mph - N/A   Mostly Cloudy
2:20 PM 42.8 °F 35.4 °F 35.6 °F 76% 29.95 in 6.2 mi SSE 15.0 mph - N/A   Mostly Cloudy
2:50 PM 42 °F - 35 °F 70% 29.94 in 19 mi SSE 15.0 mph - -   Partly Cloudy
2:50 PM 41.0 °F 33.1 °F 35.6 °F 81% 29.92 in 6.2 mi SSE 15.0 mph - N/A   Scattered Clouds
3:20 PM 42.8 °F 35.4 °F 35.6 °F 76% 29.92 in 6.2 mi South 15.0 mph - N/A   Partly Cloudy
3:50 PM 42.8 °F 35.8 °F 35.6 °F 76% 29.92 in 6.2 mi South 13.8 mph - N/A   Partly Cloudy
4:20 PM 42.8 °F 35.4 °F 35.6 °F 76% 29.89 in 6.2 mi South 15.0 mph - N/A   Overcast
4:50 PM 42.8 °F 36.6 °F 35.6 °F 76% 29.89 in 6.2 mi South 11.5 mph - N/A   Overcast
5:20 PM 42.8 °F 35.4 °F 35.6 °F 76% 29.89 in 6.2 mi South 15.0 mph - N/A Rain Light Rain
5:50 PM 42 °F - 36 °F 73% 29.89 in 12 mi SSE 13.8 mph - - Rain Light Rain
5:50 PM 42.8 °F 35.8 °F 35.6 °F 76% 29.89 in 6.2 mi SSE 13.8 mph - N/A Rain Light Rain
6:20 PM 41.0 °F 33.5 °F 35.6 °F 81% 29.89 in 6.2 mi SSE 13.8 mph - N/A Rain Light Rain
6:50 PM 41.0 °F 32.8 °F 35.6 °F 81% 29.86 in 6.2 mi SSE 16.1 mph - N/A Rain Light Rain
7:20 PM 41.0 °F 33.1 °F 35.6 °F 81% 29.86 in 6.2 mi SSE 15.0 mph - N/A Rain Light Rain
7:50 PM 41.0 °F 32.8 °F 35.6 °F 81% 29.86 in 6.2 mi SSE 16.1 mph - N/A Rain Light Rain
8:20 PM 41.0 °F 32.8 °F 35.6 °F 81% 29.83 in 6.2 mi South 16.1 mph - N/A Rain Light Rain
8:50 PM 41 °F - 35 °F 71% 29.85 in 7 mi South 17.3 mph - - Rain Light Rain
8:50 PM 41.0 °F 32.5 °F 35.6 °F 81% 29.83 in 6.2 mi South 17.3 mph - N/A   Overcast
9:50 PM 41.0 °F 33.1 °F 33.8 °F 76% 29.83 in 6.2 mi South 15.0 mph - N/A   Overcast
10:50 PM 41.0 °F 33.9 °F 32.0 °F 70% 29.80 in 6.2 mi South 12.7 mph - N/A   Overcast
11:50 PM 41 °F - 33 °F 64% 29.81 in 12 mi SSE 11.5 mph - -   Partly Cloudy
11:50 PM 41.0 °F 34.3 °F 33.8 °F 76% 29.80 in 6.2 mi SSE 11.5 mph - N/A   Overcast